Weather History for Willmar, MN

Change the Weather History Date:

Saturday, December 7, 2013

  Actual Average (KLJF) Record (KLJF)
Temperature  
Mean Temperature -8 °F -  
Max Temperature 0 °F 27 °F 45 °F (1965)
Min Temperature -16 °F 10 °F -20 °F (1972)
Degree Days  
Heating Degree Days 73    
Moisture  
Dew Point -16 °F    
Average Humidity 70    
Maximum Humidity 77    
Minimum Humidity 60    
Precipitation  
Precipitation 0.00 in - - ()
Sea Level Pressure  
Sea Level Pressure 30.60 in    
Wind  
Wind Speed 6 mph (WSW)    
Max Wind Speed 12 mph    
Max Gust Speed -    
Visibility 10 miles    
Events      
Averages and records for this station are not official NWS values.
T = Trace of Precipitation, MM = Missing Value Source: NWS Daily Summary

Daily Weather History Graph

Daily Weather History Graph

Search for Another Location

Airport:

Trip Planner

Search our weather history database for the weather conditions in past years. The results will help you decide how hot, cold, wet, or windy it might be!

Date:

Astronomy

Dec. 07, 2013 Rise Set
Actual Time 7:45 AM CST 4:38 PM CST
Civil Twilight 7:12 AM CST 5:12 PM CST
Nautical Twilight 6:34 AM CST 5:49 PM CST
Astronomical Twilight 5:59 AM CST 6:24 PM CST
Moon 11:21 AM CST (12/7) 10:32 PM CST (12/7)
Length of Visible Light 10h 00m
Length of Day
8h 52m
Waxing Crescent, 29% of the Moon is Illuminated
Dec 7
Waxing Crescent
Dec 9
First Quarter
Dec 17
Full
Dec 25
Last Quarter
Jan 1
New

Hourly Weather History & Observations

Time (CST) Temp. Windchill Dew Point Humidity Pressure Visibility Wind Dir Wind Speed Gust Speed Precip Events Conditions
12:15 AM -9.4 °F -24.3 °F -16.6 °F 71% 30.62 in 10.0 mi West 6.9 mph - N/A   Clear
12:35 AM -11.2 °F -26.4 °F -16.6 °F 77% 30.62 in 10.0 mi West 6.9 mph - N/A   Clear
12:55 AM -11.2 °F -27.8 °F -16.6 °F 77% 30.62 in 10.0 mi WNW 8.1 mph - N/A   Clear
1:15 AM -9.4 °F -24.3 °F -16.6 °F 71% 30.61 in 10.0 mi WNW 6.9 mph - N/A   Clear
1:34 AM -11.2 °F -26.4 °F -16.6 °F 77% 30.62 in 10.0 mi West 6.9 mph - N/A   Clear
1:55 AM -11.2 °F -26.4 °F -18.4 °F 70% 30.62 in 10.0 mi West 6.9 mph - N/A   Clear
2:15 AM -11.2 °F -27.8 °F -18.4 °F 70% 30.62 in 10.0 mi West 8.1 mph - N/A   Clear
2:35 AM -11.2 °F -27.8 °F -16.6 °F 77% 30.63 in 10.0 mi WNW 8.1 mph - N/A   Clear
2:55 AM -11.2 °F -24.8 °F -18.4 °F 70% 30.63 in 10.0 mi West 5.8 mph - N/A   Clear
3:15 AM -11.2 °F -24.8 °F -18.4 °F 70% 30.63 in 10.0 mi West 5.8 mph - N/A   Clear
3:35 AM -11.2 °F -26.4 °F -18.4 °F 70% 30.64 in 10.0 mi West 6.9 mph - N/A   Clear
3:55 AM -13.0 °F -27.0 °F -20.2 °F 70% 30.64 in 10.0 mi West 5.8 mph - N/A   Clear
4:15 AM -11.2 °F -24.8 °F -18.4 °F 70% 30.63 in 10.0 mi West 5.8 mph - N/A   Clear
4:35 AM -11.2 °F -27.8 °F -18.4 °F 70% 30.63 in 10.0 mi West 8.1 mph - N/A   Clear
4:55 AM -11.2 °F -26.4 °F -18.4 °F 70% 30.63 in 10.0 mi WNW 6.9 mph - N/A   Clear
5:15 AM -11.2 °F -20.6 °F -18.4 °F 70% 30.62 in 10.0 mi West 3.5 mph - N/A   Clear
5:35 AM -13.0 °F -25.1 °F -20.2 °F 70% 30.63 in 10.0 mi SW 4.6 mph - N/A   Clear
5:55 AM -16.6 °F -32.9 °F -23.8 °F 70% 30.63 in 10.0 mi WSW 6.9 mph - N/A   Clear
6:15 AM -16.6 °F -31.3 °F -22.0 °F 76% 30.64 in 10.0 mi SW 5.8 mph - N/A   Clear
6:35 AM -14.8 °F -27.2 °F -20.2 °F 77% 30.64 in 10.0 mi SW 4.6 mph - N/A   Clear
6:55 AM -14.8 °F -27.2 °F -20.2 °F 77% 30.64 in 10.0 mi WSW 4.6 mph - N/A   Clear
7:15 AM -14.8 °F -27.2 °F -22.0 °F 70% 30.64 in 10.0 mi West 4.6 mph - N/A   Clear
7:35 AM -14.8 °F -24.8 °F -20.2 °F 77% 30.65 in 10.0 mi WSW 3.5 mph - N/A   Clear
7:55 AM -14.8 °F -24.8 °F -20.2 °F 77% 30.65 in 10.0 mi SW 3.5 mph - N/A   Clear
8:15 AM -14.8 °F - -20.2 °F 77% 30.65 in 10.0 mi Calm Calm - N/A   Clear
8:35 AM -14.8 °F -24.8 °F -20.2 °F 77% 30.64 in 10.0 mi WSW 3.5 mph - N/A   Clear
8:55 AM -14.8 °F -29.1 °F -20.2 °F 77% 30.65 in 10.0 mi WSW 5.8 mph - N/A   Clear
9:15 AM -11.2 °F -27.8 °F -18.4 °F 70% 30.65 in - WSW 8.1 mph - N/A   Clear
9:35 AM -9.4 °F -24.3 °F -16.6 °F 71% 30.66 in - West 6.9 mph - N/A   Clear
9:55 AM -9.4 °F -24.3 °F -16.6 °F 71% 30.66 in 10.0 mi WSW 6.9 mph - N/A   Clear
10:14 AM -7.6 °F -24.6 °F -16.6 °F 65% 30.66 in 10.0 mi WSW 9.2 mph - N/A   Clear
10:35 AM -7.6 °F -22.1 °F -14.8 °F 71% 30.66 in 10.0 mi WSW 6.9 mph - N/A   Clear
10:55 AM -7.6 °F -22.1 °F -14.8 °F 71% 30.66 in 10.0 mi WSW 6.9 mph - N/A   Clear
11:14 AM -5.8 °F -19.9 °F -14.8 °F 65% 30.66 in 10.0 mi SW 6.9 mph - N/A   Clear
11:35 AM -5.8 °F -18.4 °F -13.0 °F 71% 30.65 in 10.0 mi WSW 5.8 mph - N/A   Clear
11:55 AM -4.0 °F -19.0 °F -13.0 °F 65% 30.65 in 10.0 mi WSW 8.1 mph - N/A   Clear
12:14 PM -2.2 °F -18.9 °F -11.2 °F 66% 30.63 in 10.0 mi SW 10.4 mph - N/A   Clear
12:35 PM -2.2 °F -18.0 °F -11.2 °F 66% 30.63 in 10.0 mi WSW 9.2 mph - N/A   Clear
12:55 PM -0.4 °F -17.6 °F -11.2 °F 60% 30.63 in 10.0 mi WSW 11.5 mph - N/A   Clear
1:15 PM -0.4 °F -17.6 °F -11.2 °F 60% 30.62 in 10.0 mi WSW 11.5 mph - N/A   Clear
1:35 PM -0.4 °F -17.6 °F -11.2 °F 60% 30.62 in 10.0 mi West 11.5 mph - N/A   Clear
1:55 PM -0.4 °F -17.6 °F -11.2 °F 60% 30.62 in 10.0 mi WSW 11.5 mph - N/A   Clear
2:15 PM -0.4 °F -15.7 °F -11.2 °F 60% 30.61 in 10.0 mi West 9.2 mph - N/A   Clear
2:35 PM -0.4 °F -14.7 °F -11.2 °F 60% 30.59 in 10.0 mi West 8.1 mph - N/A   Clear
2:55 PM -0.4 °F -12.0 °F -11.2 °F 60% 30.59 in 10.0 mi WSW 5.8 mph - N/A   Clear
3:15 PM -0.4 °F -12.0 °F -11.2 °F 60% 30.60 in 10.0 mi West 5.8 mph - N/A   Clear
3:35 PM -0.4 °F -13.4 °F -9.4 °F 66% 30.59 in 7.0 mi WSW 6.9 mph - N/A   Clear
3:55 PM -0.4 °F -14.7 °F -9.4 °F 66% 30.59 in 7.0 mi WSW 8.1 mph - N/A   Clear
4:15 PM -0.4 °F -10.4 °F -9.4 °F 66% 30.59 in 10.0 mi WSW 4.6 mph - N/A   Clear
4:35 PM -2.2 °F -10.4 °F -11.2 °F 66% 30.58 in 10.0 mi WSW 3.5 mph - N/A   Clear
4:55 PM -2.2 °F - -11.2 °F 66% 30.58 in 10.0 mi Calm Calm - N/A   Clear
5:15 PM -2.2 °F - -11.2 °F 66% 30.57 in 10.0 mi Calm Calm - N/A   Clear
5:35 PM -4.0 °F -12.4 °F -11.2 °F 71% 30.57 in 10.0 mi WSW 3.5 mph - N/A   Clear
5:55 PM -4.0 °F - -13.0 °F 65% 30.57 in 10.0 mi Calm Calm - N/A   Clear
6:15 PM -5.8 °F - -13.0 °F 71% 30.56 in 10.0 mi Calm Calm - N/A   Clear
6:34 PM -7.6 °F - -13.0 °F 77% 30.55 in 10.0 mi Calm Calm - N/A   Clear
6:55 PM -7.6 °F - -14.8 °F 71% 30.55 in 10.0 mi Calm Calm - N/A   Clear
7:15 PM -9.4 °F - -16.6 °F 71% 30.54 in 10.0 mi Calm Calm - N/A   Clear
7:35 PM -7.6 °F - -14.8 °F 71% 30.54 in 10.0 mi Calm Calm - N/A   Clear
7:55 PM -11.2 °F -20.6 °F -16.6 °F 77% 30.54 in 10.0 mi East 3.5 mph - N/A   Clear
8:15 PM -9.4 °F -20.9 °F -16.6 °F 71% 30.53 in 10.0 mi ESE 4.6 mph - N/A   Clear
8:35 PM -7.6 °F -16.5 °F -13.0 °F 77% 30.53 in 10.0 mi SSE 3.5 mph - N/A   Clear
8:55 PM -7.6 °F - -13.0 °F 77% 30.53 in 10.0 mi Calm Calm - N/A   Clear
9:15 PM -7.6 °F - -14.8 °F 71% 30.52 in 10.0 mi Calm Calm - N/A   Clear
9:35 PM -9.4 °F - -14.8 °F 77% 30.51 in 10.0 mi Calm Calm - N/A   Clear
9:55 PM -9.4 °F -18.6 °F -16.6 °F 71% 30.51 in 10.0 mi SE 3.5 mph - N/A   Clear
10:15 PM -9.4 °F -18.6 °F -14.8 °F 77% 30.51 in 10.0 mi SSE 3.5 mph - N/A   Clear
10:35 PM -9.4 °F - -14.8 °F 77% 30.51 in 10.0 mi Calm Calm - N/A   Clear
10:55 PM -9.4 °F -18.6 °F -14.8 °F 77% 30.51 in 10.0 mi South 3.5 mph - N/A   Clear
11:15 PM -7.6 °F - -14.8 °F 71% 30.50 in 10.0 mi Calm Calm - N/A   Clear
11:35 PM -9.4 °F -18.6 °F -16.6 °F 71% 30.50 in 10.0 mi SE 3.5 mph - N/A   Mostly Cloudy
11:55 PM -7.6 °F -16.5 °F -14.8 °F 71% 30.49 in 10.0 mi ESE 3.5 mph - N/A   Overcast